History for ZBSJ

Zhengding, HB

Daily Weekly Monthly
Daily Summary for Monday, March 25, 2019
  Actual: Average: Record:
Temperature
Mean Temperature: 60 °F / 16 °C - :  
Max Temperature: 77 °F / 25 °C - - ()
Min Temperature: 42 °F / 6 °C - - ()
Degree Days
Heating Degree Days: 6    
Growing Degree Days 10 (Base 50)    
Moisture
Dew Point 11 °F / -12 °C    
Average Humidity 20    
Maximum Humidity 53    
Minimum Humidity 4    
Precipitation
Precipitation 0.00 in / 0.0 cm - - ()
Sea Level Pressure
Sea Level Pressure 29.86 in / 1011.00 hPa   
Wind
Wind Speed 6 mph / 9 km/h ()  
Max Wind Speed 13 mph / 22 km/h   
Max Gust Speed -   

Key: T is trace of precipitation, MM is missing value
Source: Averaged Metar Reports

Graphs

Observations

History Graphs Observations

Obs Go Here...

Features

Weather Apps

WunderRadio

Weather Underground Apps
Check out our wide variety of mobile and setup applications.

Weather Underground Applications

Top of Page

© Copyright 2019
The Weather Company, LLC
Time(CST)TemperatureDew PointHumidity Sea Level Pressure Visibility Wind DirectionWind SpeedGust SpeedPrecipitationEvents Conditions
12:00 AM 48.2 °F / 9.0 °C 26.6 °F / -3.0 °C 43% 29.86 in / 1011 hPa - NNW 4.5 mph / 7.2 km/h - N/A   Clear
1:00 AM 42.8 °F / 6.0 °C 26.6 °F / -3.0 °C 53% 29.86 in / 1011 hPa - SW 4.5 mph / 7.2 km/h - N/A   Clear
2:00 AM 42.8 °F / 6.0 °C 26.6 °F / -3.0 °C 53% 29.86 in / 1011 hPa - Variable 2.2 mph / 3.6 km/h - N/A   Clear
3:00 AM 46.4 °F / 8.0 °C 23.0 °F / -5.0 °C 40% 29.86 in / 1011 hPa - NW 6.7 mph / 10.8 km/h - N/A   Clear
4:00 AM 44.6 °F / 7.0 °C 15.8 °F / -9.0 °C 31% 29.86 in / 1011 hPa - WNW 4.5 mph / 7.2 km/h - N/A   Clear
5:00 AM 44.6 °F / 7.0 °C 14.0 °F / -10.0 °C 29% 29.86 in / 1011 hPa - NW 6.7 mph / 10.8 km/h - N/A   Clear
6:00 AM 48.2 °F / 9.0 °C 10.4 °F / -12.0 °C 22% 29.86 in / 1011 hPa - West 11.2 mph / 18.0 km/h - N/A   Clear
7:00 AM 46.4 °F / 8.0 °C 10.4 °F / -12.0 °C 23% 29.89 in / 1012 hPa - West 6.7 mph / 10.8 km/h - N/A   Clear
8:00 AM 53.6 °F / 12.0 °C 12.2 °F / -11.0 °C 19% 29.89 in / 1012 hPa - NW 6.7 mph / 10.8 km/h - N/A   Clear
9:00 AM 59.0 °F / 15.0 °C 15.8 °F / -9.0 °C 19% 29.89 in / 1012 hPa - West 4.5 mph / 7.2 km/h - N/A   Clear
10:00 AM 68.0 °F / 20.0 °C 14.0 °F / -10.0 °C 12% 29.92 in / 1013 hPa - West 8.9 mph / 14.4 km/h - N/A   Clear
11:00 AM 73.4 °F / 23.0 °C 5.0 °F / -15.0 °C 7% 29.89 in / 1012 hPa - West 13.4 mph / 21.6 km/h - N/A   Clear
12:00 PM 75.2 °F / 24.0 °C -5.8 °F / -21.0 °C 4% 29.89 in / 1012 hPa - WSW 11.2 mph / 18.0 km/h - N/A   Clear
1:00 PM 75.2 °F / 24.0 °C -5.8 °F / -21.0 °C 4% 29.86 in / 1011 hPa - Variable 6.7 mph / 10.8 km/h - N/A   Clear
2:00 PM 75.2 °F / 24.0 °C -4.0 °F / -20.0 °C 4% 29.83 in / 1010 hPa - Variable 4.5 mph / 7.2 km/h - N/A   Clear
3:00 PM 77.0 °F / 25.0 °C -4.0 °F / -20.0 °C 4% 29.80 in / 1009 hPa - Variable 2.2 mph / 3.6 km/h - N/A   Clear
4:00 PM 77.0 °F / 25.0 °C -9.4 °F / -23.0 °C 4% 29.80 in / 1009 hPa - Variable 4.5 mph / 7.2 km/h - N/A   Clear
5:00 PM 73.4 °F / 23.0 °C 12.2 °F / -11.0 °C 10% 29.80 in / 1009 hPa - SE 11.2 mph / 18.0 km/h - N/A   Clear
6:00 PM 69.8 °F / 21.0 °C 14.0 °F / -10.0 °C 12% 29.80 in / 1009 hPa - South 8.9 mph / 14.4 km/h - N/A   Clear
7:00 PM 66.2 °F / 19.0 °C 10.4 °F / -12.0 °C 11% 29.83 in / 1010 hPa - South 8.9 mph / 14.4 km/h - N/A   Clear
8:00 PM 62.6 °F / 17.0 °C 14.0 °F / -10.0 °C 15% 29.86 in / 1011 hPa - South 6.7 mph / 10.8 km/h - N/A   Clear
9:00 PM 62.6 °F / 17.0 °C 14.0 °F / -10.0 °C 15% 29.89 in / 1012 hPa - SSW 8.9 mph / 14.4 km/h - N/A   Clear
10:00 PM 60.8 °F / 16.0 °C 14.0 °F / -10.0 °C 16% 29.89 in / 1012 hPa - South 6.7 mph / 10.8 km/h - N/A   Clear
11:00 PM 55.4 °F / 13.0 °C 19.4 °F / -7.0 °C 25% 29.89 in / 1012 hPa - South 4.5 mph / 7.2 km/h - N/A   Clear